CW6666 Weather Reports


Display with metric or nautical units.
time (UTC)temp
F
wind
direction
speed
MPH
gust
MPH
rain 1hr
in
rain 24hr
in
rain mn
in
humidity
%
barometer
mb
20150331001127 82 63 20.0 23.0 0.00 0.26 0.18 89 1009.6
20150331000627 82 53 21.0 23.0 0.00 0.26 0.18 89 1009.6
20150331000127 82 67 18.0 24.0 0.00 0.26 0.18 89 1009.6
20150330235627 82 51 16.0 26.0 0.00 0.26 0.18 90 1009.8
20150330235127 82 51 17.0 26.0 0.00 0.26 0.18 90 1009.8
20150330234627 82 53 20.0 24.0 0.00 0.26 0.18 89 1009.8
20150330234127 82 51 19.0 20.0 0.00 0.26 0.18 91 1009.9
20150330233626 82 55 13.0 21.0 0.00 0.26 0.18 91 1009.9
20150330233127 82 44 17.0 25.0 0.00 0.26 0.18 91 1009.9
20150330232627 82 56 15.0 25.0 0.00 0.26 0.18 90 1009.9
20150330232126 81 69 17.0 28.0 0.00 0.26 0.18 90 1009.9
20150330231626 82 60 23.0 28.0 0.00 0.26 0.18 89 1009.9
20150330231126 82 59 24.0 27.0 0.00 0.26 0.18 89 1009.7
20150330230625 82 55 21.0 24.0 0.00 0.26 0.18 90 1009.7
20150330230125 82 46 20.0 24.0 0.00 0.26 0.18 89 1009.7
20150330225626 82 45 22.0 25.0 0.00 0.26 0.18 89 1009.7
20150330225125 82 37 24.0 25.0 0.00 0.26 0.18 88 1009.7
20150330224625 82 49 19.0 28.0 0.00 0.26 0.18 89 1009.7
20150330224125 82 60 23.0 28.0 0.00 0.26 0.18 87 1009.3
20150330223624 82 67 24.0 25.0 0.00 0.26 0.18 90 1009.3
20150330223124 82 63 18.0 25.0 0.00 0.26 0.18 89 1009.3
20150330222625 82 58 25.0 27.0 0.00 0.26 0.18 88 1009.2
20150330222124 82 59 19.0 28.0 0.00 0.26 0.18 89 1009.2
20150330221624 82 54 20.0 28.0 0.00 0.26 0.18 88 1009.2
20150330221124 82 59 24.0 27.0 0.00 0.26 0.18 89 1009.1
20150330220624 82 55 22.0 28.0 0.00 0.26 0.18 88 1009.1
20150330220123 82 61 24.0 28.0 0.00 0.26 0.18 88 1009.1
20150330215624 82 49 21.0 27.0 0.00 0.26 0.18 88 1008.9
20150330215123 82 52 25.0 28.0 0.00 0.26 0.18 89 1008.9
20150330214623 82 43 24.0 28.0 0.00 0.26 0.18 89 1008.9
20150330214123 82 49 22.0 28.0 0.00 0.26 0.18 89 1008.6
20150330213623 82 55 21.0 26.0 0.00 0.26 0.18 89 1008.6
20150330213123 82 51 19.0 26.0 0.00 0.26 0.18 89 1008.6
20150330212623 82 49 23.0 25.0 0.01 0.26 0.18 89 1008.3
20150330212122 82 58 18.0 24.0 0.06 0.26 0.18 90 1008.3
20150330211622 82 51 19.0 28.0 0.06 0.26 0.18 90 1008.3
20150330211122 82 46 21.0 28.0 0.06 0.26 0.18 90 1008.2
20150330210622 82 58 23.0 28.0 0.06 0.26 0.18 89 1008.2
20150330210122 82 53 22.0 27.0 0.06 0.26 0.18 90 1008.2
20150330205621 82 50 22.0 26.0 0.06 0.26 0.18 91 1008.1
20150330205121 82 60 24.0 30.0 0.06 0.26 0.18 89 1008.1
20150330204621 81 59 23.0 30.0 0.06 0.26 0.18 89 1008.1
20150330204121 81 46 18.0 29.0 0.06 0.26 0.18 91 1007.7
20150330203621 81 53 24.0 29.0 0.06 0.26 0.18 92 1007.7
20150330203121 81 44 23.0 29.0 0.06 0.26 0.18 91 1007.7
20150330202620 80 67 18.0 28.0 0.05 0.25 0.17 91 1007.4
20150330202120 81 64 19.0 30.0 0.00 0.20 0.12 90 1007.4
20150330201621 82 51 26.0 31.0 0.00 0.20 0.12 90 1007.4
20150330201120 82 55 25.0 31.0 0.00 0.20 0.12 89 1007.3
20150330200620 82 51 20.0 28.0 0.00 0.20 0.12 90 1007.3
20150330200120 82 51 22.0 28.0 0.00 0.20 0.12 89 1007.3
20150330195620 82 61 21.0 27.0 0.00 0.20 0.12 90 1007.3
20150330195119 81 49 25.0 26.0 0.00 0.20 0.12 91 1007.3
20150330194620 81 44 19.0 26.0 0.00 0.20 0.12 91 1007.3
20150330194119 81 42 19.0 28.0 0.00 0.20 0.12 91 1007.3
20150330193619 82 38 22.0 28.0 0.00 0.20 0.12 90 1007.3
20150330193119 82 40 17.0 26.0 0.00 0.20 0.12 91 1007.3
20150330192619 82 39 22.0 26.0 0.00 0.20 0.12 89 1007.2
20150330192119 82 49 21.0 26.0 0.00 0.20 0.12 90 1007.2
20150330191618 82 40 24.0 26.0 0.00 0.20 0.12 91 1007.2
20150330191118 82 43 22.0 25.0 0.00 0.20 0.12 90 1007.1
20150330190618 82 48 23.0 27.0 0.00 0.20 0.12 90 1007.1
20150330190118 82 51 18.0 30.0 0.00 0.20 0.12 90 1007.1
20150330185618 82 40 25.0 30.0 0.00 0.20 0.12 90 1007.0
20150330185118 82 44 25.0 27.0 0.00 0.20 0.12 89 1007.0
20150330184618 82 44 21.0 27.0 0.00 0.20 0.12 89 1007.0
20150330184117 82 44 20.0 28.0 0.00 0.20 0.12 89 1006.7
20150330183617 82 55 19.0 29.0 0.00 0.20 0.12 89 1006.7
20150330183117 82 46 26.0 29.0 0.00 0.20 0.12 89 1006.7
20150330182617 82 59 20.0 27.0 0.00 0.20 0.12 89 1006.6
20150330182117 82 44 23.0 27.0 0.00 0.20 0.12 90 1006.6
20150330181617 82 51 23.0 27.0 0.00 0.20 0.12 90 1006.6
20150330181116 82 45 24.0 28.0 0.00 0.20 0.12 88 1006.7
20150330180617 82 40 23.0 28.0 0.00 0.20 0.12 89 1006.7
20150330180116 82 35 26.0 30.0 0.00 0.20 0.12 89 1006.7
20150330175616 82 58 21.0 30.0 0.00 0.20 0.12 90 1006.9
20150330175116 82 59 22.0 28.0 0.00 0.20 0.12 89 1006.9
20150330174616 82 41 23.0 28.0 0.00 0.20 0.12 89 1006.9
20150330174116 82 40 23.0 28.0 0.00 0.20 0.12 90 1006.9
20150330173615 82 51 22.0 30.0 0.00 0.20 0.12 88 1006.9
20150330173115 82 56 23.0 30.0 0.00 0.20 0.12 88 1006.9
20150330172615 82 40 22.0 30.0 0.00 0.20 0.12 88 1007.0
20150330172116 82 50 21.0 29.0 0.00 0.20 0.12 90 1007.0
20150330171615 82 60 26.0 29.0 0.00 0.20 0.12 90 1007.0
20150330171115 82 49 25.0 29.0 0.00 0.20 0.12 89 1007.1
20150330170615 82 51 21.0 30.0 0.00 0.20 0.12 91 1007.1
20150330170114 82 54 24.0 30.0 0.00 0.20 0.12 90 1007.1
20150330165614 82 57 26.0 28.0 0.00 0.20 0.12 91 1007.3
20150330165114 82 40 18.0 28.0 0.00 0.20 0.12 90 1007.3
20150330164614 82 49 20.0 29.0 0.01 0.20 0.12 90 1007.3
20150330164114 82 50 27.0 29.0 0.01 0.20 0.12 90 1007.5
20150330163614 82 46 17.0 25.0 0.01 0.20 0.12 90 1007.5
20150330163113 82 41 18.0 28.0 0.01 0.20 0.12 90 1007.5
20150330162613 82 51 22.0 28.0 0.01 0.20 0.12 89 1007.7
20150330162113 82 51 18.0 25.0 0.01 0.20 0.12 91 1007.7
20150330161613 82 50 23.0 23.0 0.01 0.20 0.12 91 1007.7
20150330161113 82 60 16.0 23.0 0.01 0.20 0.12 91 1007.8
20150330160613 82 60 20.0 23.0 0.01 0.20 0.12 90 1007.8
20150330160113 82 50 21.0 26.0 0.01 0.20 0.12 91 1007.8
20150330155613 82 59 23.0 26.0 0.01 0.20 0.12 90 1008.2
20150330155112 81 61 18.0 26.0 0.02 0.20 0.12 91 1008.2
20150330154612 82 60 25.0 26.0 0.02 0.19 0.11 89 1008.2
20150330154112 82 63 22.0 25.0 0.02 0.19 0.11 90 1008.2
20150330153612 82 57 18.0 26.0 0.03 0.19 0.11 90 1008.2
20150330153112 82 56 16.0 26.0 0.03 0.19 0.11 91 1008.2
20150330152611 82 52 21.0 26.0 0.03 0.19 0.11 90 1008.4
20150330152111 82 40 18.0 22.0 0.03 0.19 0.11 91 1008.4
20150330151611 81 47 18.0 25.0 0.03 0.19 0.11 91 1008.4
20150330151111 81 53 19.0 25.0 0.05 0.19 0.11 90 1008.7
20150330150611 81 58 18.0 25.0 0.11 0.19 0.11 91 1008.7
20150330150111 81 44 19.0 26.0 0.11 0.19 0.11 92 1008.7
20150330145611 81 40 21.0 26.0 0.11 0.19 0.11 91 1008.7
20150330145111 81 46 20.0 26.0 0.10 0.18 0.10 91 1008.7
20150330144611 81 53 21.0 25.0 0.09 0.17 0.09 91 1008.7
20150330144110 81 36 16.0 24.0 0.09 0.17 0.09 91 1008.8
20150330143610 81 38 22.0 24.0 0.08 0.16 0.08 92 1008.8
20150330143110 81 38 21.0 26.0 0.08 0.16 0.08 91 1008.8
20150330142609 81 57 18.0 26.0 0.08 0.16 0.08 92 1009.0
20150330142109 81 44 24.0 26.0 0.09 0.16 0.08 91 1009.0
20150330141609 81 52 22.0 26.0 0.12 0.16 0.08 92 1009.0
20150330141109 81 57 14.0 26.0 0.10 0.14 0.06 92 1009.0
20150330140609 81 58 16.0 26.0 0.04 0.08 0.00 91 1009.0
20150330140109 82 56 18.0 24.0 0.04 0.08 0.00 90 1009.0
20150330135609 82 49 16.0 24.0 0.04 0.08 0.08 89 1009.2
20150330135109 82 38 23.0 24.0 0.04 0.08 0.08 89 1009.2
20150330134608 82 53 22.0 25.0 0.04 0.08 0.08 89 1009.2
20150330134108 82 59 23.0 25.0 0.04 0.08 0.08 90 1009.6
20150330133608 81 49 22.0 24.0 0.04 0.08 0.08 91 1009.6
20150330133108 81 48 19.0 27.0 0.04 0.08 0.08 92 1009.6
20150330132608 81 62 18.0 27.0 0.04 0.08 0.08 92 1009.4
20150330132108 81 59 23.0 26.0 0.03 0.07 0.07 92 1009.4
20150330131608 82 62 20.0 26.0 0.00 0.04 0.04 90 1009.4
20150330131107 82 43 20.0 25.0 0.00 0.04 0.04 89 1009.4
20150330130607 82 46 19.0 26.0 0.00 0.04 0.04 88 1009.4
20150330130107 82 40 18.0 26.0 0.00 0.04 0.04 89 1009.4
20150330125607 82 50 23.0 24.0 0.00 0.04 0.04 89 1009.3
20150330125107 82 44 21.0 24.0 0.00 0.04 0.04 89 1009.3
20150330124607 82 55 16.0 26.0 0.00 0.04 0.04 89 1009.3
20150330124107 82 44 20.0 26.0 0.00 0.04 0.04 89 1009.3
20150330123607 82 46 24.0 28.0 0.00 0.04 0.04 88 1009.3
20150330123107 82 40 21.0 28.0 0.00 0.04 0.04 88 1009.3
20150330122606 82 42 22.0 25.0 0.00 0.04 0.04 89 1009.5
20150330122106 82 39 18.0 23.0 0.00 0.04 0.04 89 1009.5
20150330121605 82 43 17.0 25.0 0.00 0.04 0.04 89 1009.5
20150330121106 82 45 18.0 25.0 0.00 0.04 0.04 89 1009.8
20150330120605 82 48 23.0 24.0 0.00 0.04 0.04 89 1009.8
20150330120105 82 36 22.0 24.0 0.00 0.04 0.04 90 1009.8
20150330115605 82 38 17.0 24.0 0.00 0.04 0.04 89 1009.8
20150330115105 82 32 18.0 26.0 0.00 0.04 0.04 88 1009.8
20150330114605 82 44 20.0 27.0 0.00 0.04 0.04 88 1009.8
20150330114105 82 40 21.0 27.0 0.00 0.04 0.04 89 1009.8
20150330113605 82 30 26.0 26.0 0.00 0.04 0.04 89 1009.8
20150330113104 82 45 18.0 24.0 0.00 0.04 0.04 89 1009.8
20150330112604 82 42 22.0 27.0 0.00 0.04 0.04 87 1009.8
20150330112104 82 41 22.0 27.0 0.00 0.04 0.04 87 1009.8
20150330111604 82 36 18.0 26.0 0.00 0.04 0.04 87 1009.8
20150330111104 82 44 21.0 26.0 0.00 0.04 0.04 88 1009.6
20150330110604 82 42 20.0 29.0 0.00 0.04 0.04 88 1009.6
20150330110103 82 42 16.0 29.0 0.00 0.04 0.04 88 1009.6
20150330105603 82 44 21.0 26.0 0.00 0.04 0.04 88 1009.5
20150330105103 82 40 20.0 25.0 0.00 0.04 0.04 88 1009.5
20150330104603 82 38 21.0 24.0 0.00 0.04 0.04 88 1009.5
20150330104103 82 34 15.0 24.0 0.00 0.04 0.04 88 1009.4
20150330103603 82 38 20.0 29.0 0.00 0.04 0.04 87 1009.4
20150330103133 82 42 22.0 29.0 0.00 0.04 0.04 86 1009.4
20150330102634 82 46 23.0 28.0 0.00 0.04 0.04 86 1009.3
20150330102132 82 36 21.0 24.0 0.00 0.04 0.04 88 1009.3
20150330101632 82 42 17.0 23.0 0.00 0.04 0.04 89 1009.3
20150330101102 82 38 18.0 23.0 0.00 0.04 0.04 88 1009.2
20150330100632 82 43 17.0 24.0 0.00 0.04 0.04 88 1009.2
20150330100131 82 38 18.0 24.0 0.00 0.04 0.04 89 1009.2
20150330095601 82 41 19.0 26.0 0.00 0.04 0.04 90 1009.3
20150330095101 82 42 18.0 26.0 0.00 0.04 0.04 88 1009.3
20150330094601 82 52 18.0 25.0 0.00 0.04 0.04 88 1009.3
20150330094101 82 39 22.0 25.0 0.00 0.04 0.04 87 1009.1
20150330093601 82 46 18.0 25.0 0.00 0.04 0.04 86 1009.1
20150330093131 82 32 17.0 26.0 0.00 0.04 0.04 87 1009.1
20150330092630 82 35 22.0 26.0 0.00 0.04 0.04 87 1008.9
20150330092131 82 36 19.0 25.0 0.00 0.04 0.04 87 1008.9
20150330091630 82 39 21.0 24.0 0.00 0.04 0.04 88 1008.9
20150330091130 82 38 16.0 28.0 0.00 0.04 0.04 87 1008.7
20150330090630 82 39 20.0 28.0 0.00 0.04 0.04 86 1008.7
20150330090130 82 44 22.0 26.0 0.00 0.04 0.04 87 1008.7
20150330085629 82 45 21.0 23.0 0.00 0.04 0.04 89 1008.8
20150330085129 82 38 19.0 24.0 0.00 0.04 0.04 88 1008.8
20150330084630 82 36 20.0 25.0 0.00 0.04 0.04 88 1008.8
20150330084129 82 28 22.0 25.0 0.00 0.04 0.04 87 1008.5
20150330083629 82 31 20.0 24.0 0.00 0.04 0.04 87 1008.5
20150330083129 82 37 21.0 24.0 0.00 0.04 0.04 86 1008.5
20150330082629 82 40 20.0 25.0 0.00 0.04 0.04 87 1008.3
20150330082128 82 38 17.0 26.0 0.00 0.04 0.04 86 1008.3
20150330081629 82 44 24.0 26.0 0.00 0.04 0.04 86 1008.3
20150330081128 82 52 23.0 26.0 0.00 0.04 0.04 86 1008.3
20150330080628 82 44 20.0 26.0 0.00 0.04 0.04 87 1008.3
20150330080128 82 36 22.0 26.0 0.00 0.04 0.04 86 1008.3
20150330075628 82 41 21.0 26.0 0.01 0.04 0.04 88 1008.2
20150330075128 82 41 22.0 25.0 0.01 0.04 0.04 88 1008.2
20150330074628 82 45 22.0 25.0 0.01 0.04 0.04 87 1008.2
20150330074127 82 38 20.0 24.0 0.01 0.04 0.04 88 1008.0
20150330073627 82 40 19.0 23.0 0.01 0.04 0.04 89 1008.0
20150330073127 82 45 20.0 23.0 0.01 0.04 0.04 88 1008.0
20150330072627 82 44 19.0 25.0 0.01 0.04 0.04 89 1007.9
20150330072126 82 53 18.0 25.0 0.01 0.04 0.04 88 1007.9
20150330071627 82 50 16.0 25.0 0.01 0.04 0.04 89 1007.9
20150330071126 81 48 21.0 27.0 0.01 0.04 0.04 91 1007.7
20150330070626 81 51 18.0 27.0 0.01 0.04 0.04 91 1007.7
20150330070127 82 44 21.0 25.0 0.01 0.04 0.04 88 1007.7
20150330065626 82 36 22.0 26.0 0.00 0.03 0.03 86 1007.6
20150330065126 82 50 19.0 26.0 0.00 0.03 0.03 86 1007.6
20150330064626 82 50 24.0 27.0 0.03 0.03 0.03 86 1007.6
20150330064126 82 42 25.0 27.0 0.03 0.03 0.03 87 1007.5
20150330063626 82 47 21.0 26.0 0.03 0.03 0.03 87 1007.5
20150330063125 82 53 22.0 26.0 0.03 0.03 0.03 86 1007.5
20150330062625 82 49 23.0 23.0 0.03 0.03 0.03 87 1007.3
20150330062126 82 44 18.0 23.0 0.03 0.03 0.03 88 1007.3
20150330061625 81 53 16.0 23.0 0.03 0.03 0.03 88 1007.3
20150330061124 81 52 20.0 22.0 0.03 0.03 0.03 89 1007.5
20150330060624 80 46 16.0 23.0 0.03 0.03 0.03 90 1007.5
20150330060125 79 33 21.0 24.0 0.03 0.03 0.03 91 1007.5
20150330055624 79 27 19.0 35.0 0.03 0.03 0.03 93 1007.3
20150330055124 79 40 23.0 35.0 0.03 0.03 0.03 92 1007.3
20150330054624 83 59 26.0 30.0 0.00 0.00 0.00 85 1007.3
20150330054123 83 51 20.0 23.0 0.00 0.00 0.00 85 1007.3
20150330053623 83 37 16.0 23.0 0.00 0.00 0.00 84 1007.3
20150330053123 83 38 17.0 24.0 0.00 0.00 0.00 85 1007.3
20150330052623 83 44 20.0 24.0 0.00 0.00 0.00 83 1007.3
20150330052123 83 40 15.0 25.0 0.00 0.00 0.00 84 1007.3
20150330051623 83 45 17.0 25.0 0.00 0.00 0.00 85 1007.3
20150330051123 83 43 19.0 25.0 0.00 0.00 0.00 83 1007.3
20150330050623 83 41 16.0 22.0 0.00 0.00 0.00 84 1007.3
20150330050122 83 38 16.0 24.0 0.00 0.00 0.00 85 1007.3
20150330045622 83 26 16.0 24.0 0.00 0.00 0.00 85 1007.4
20150330045123 83 39 18.0 21.0 0.00 0.00 0.00 85 1007.4
20150330044622 83 42 16.0 24.0 0.00 0.00 0.00 85 1007.4
20150330044122 83 49 21.0 27.0 0.00 0.00 0.00 84 1007.5
20150330043622 83 32 24.0 27.0 0.00 0.00 0.00 85 1007.5
20150330043121 83 40 20.0 25.0 0.00 0.00 0.00 85 1007.5
20150330042622 83 37 18.0 23.0 0.00 0.00 0.00 84 1007.6
20150330042122 83 40 15.0 22.0 0.00 0.00 0.00 85 1007.6
20150330041621 83 42 17.0 23.0 0.00 0.00 0.00 85 1007.6
20150330041121 83 46 20.0 24.0 0.00 0.00 0.00 84 1007.7
20150330040621 83 38 20.0 24.0 0.00 0.00 0.00 84 1007.7
20150330040120 83 41 13.0 25.0 0.00 0.00 0.00 85 1007.7
20150330035620 82 40 18.0 27.0 0.00 0.00 0.00 85 1007.6
20150330035120 82 42 25.0 27.0 0.00 0.00 0.00 84 1007.6
20150330034620 83 34 21.0 24.0 0.00 0.00 0.00 83 1007.6
20150330034120 83 25 18.0 24.0 0.00 0.00 0.00 82 1007.7
20150330033620 83 39 19.0 23.0 0.00 0.00 0.00 83 1007.7
20150330033119 83 35 18.0 23.0 0.00 0.00 0.00 83 1007.7
20150330032620 84 26 17.0 25.0 0.00 0.00 0.00 83 1007.9
20150330032120 84 40 23.0 25.0 0.00 0.00 0.00 80 1007.9
20150330031620 84 38 21.0 25.0 0.00 0.00 0.00 81 1007.9
20150330031120 84 40 20.0 24.0 0.00 0.00 0.00 82 1008.0
20150330030619 84 38 17.0 24.0 0.00 0.00 0.00 82 1008.0
20150330030120 84 44 21.0 25.0 0.00 0.00 0.00 82 1008.0
20150330025620 84 36 20.0 25.0 0.00 0.00 0.00 83 1008.2
20150330025119 84 36 22.0 25.0 0.00 0.00 0.00 81 1008.2
20150330024619 84 34 17.0 22.0 0.00 0.00 0.00 84 1008.2
20150330024119 84 38 19.0 23.0 0.00 0.00 0.00 82 1008.4
20150330023619 84 38 20.0 23.0 0.00 0.00 0.00 82 1008.4
20150330023118 84 31 17.0 24.0 0.00 0.00 0.00 82 1008.4
20150330022619 84 28 20.0 24.0 0.00 0.00 0.00 81 1008.7
20150330022118 84 33 21.0 23.0 0.00 0.00 0.00 81 1008.7
20150330021617 84 29 20.0 23.0 0.00 0.00 0.00 82 1008.7
20150330021118 84 32 20.0 24.0 0.00 0.00 0.00 81 1009.0
20150330020618 84 30 18.0 24.0 0.00 0.00 0.00 81 1009.0
20150330020118 84 39 20.0 24.0 0.00 0.00 0.00 82 1009.0
20150330015617 84 37 18.0 24.0 0.00 0.00 0.00 82 1009.2
20150330015117 84 29 19.0 24.0 0.00 0.00 0.00 82 1009.2
20150330014617 84 44 22.0 24.0 0.00 0.00 0.00 82 1009.2
20150330014117 83 43 17.0 24.0 0.00 0.00 0.00 82 1009.3
20150330013617 84 33 19.0 23.0 0.00 0.00 0.00 82 1009.3
20150330013117 84 40 22.0 23.0 0.00 0.00 0.00 82 1009.3
20150330012616 84 38 17.0 24.0 0.00 0.00 0.00 82 1009.5
20150330012116 84 46 22.0 24.0 0.00 0.00 0.00 82 1009.5
20150330011617 84 40 18.0 25.0 0.00 0.00 0.00 82 1009.5
20150330011116 84 30 22.0 25.0 0.00 0.01 0.00 81 1009.6
20150330010616 84 36 21.0 23.0 0.00 0.01 0.00 81 1009.6
20150330010116 84 24 20.0 24.0 0.00 0.01 0.00 81 1009.6
20150330005616 84 34 21.0 24.0 0.00 0.01 0.00 80 1009.7
20150330005115 83 32 19.0 24.0 0.00 0.01 0.00 81 1009.7
20150330004615 83 42 19.0 24.0 0.00 0.01 0.00 81 1009.7
20150330004115 83 30 13.0 24.0 0.00 0.01 0.00 83 1009.8
20150330003614 83 30 20.0 24.0 0.00 0.01 0.00 82 1009.8
20150330003114 83 36 15.0 25.0 0.00 0.01 0.00 82 1009.8
20150330002614 83 40 22.0 25.0 0.00 0.01 0.00 82 1009.8
20150330002114 83 37 23.0 25.0 0.00 0.01 0.00 81 1009.8
20150330001614 83 40 24.0 25.0 0.00 0.01 0.00 81 1009.8